Year,Month,Day,Hour,Minute,Value (Times are PST for windgust in km/hr)
2017,06,09,00,19,4.80
2017,06,09,00,20,4.80
2017,06,09,00,21,4.80
2017,06,09,00,22,8.10
2017,06,09,00,23,8.10
2017,06,09,00,24,4.80
2017,06,09,00,25,3.20
2017,06,09,00,26,1.60
2017,06,09,00,27,1.60
2017,06,09,00,28,6.40
2017,06,09,00,29,6.40
2017,06,09,00,30,1.60
2017,06,09,00,31,4.80
2017,06,09,00,32,4.80
2017,06,09,00,33,4.80
2017,06,09,00,34,4.80
2017,06,09,00,35,8.10
2017,06,09,00,36,4.80
2017,06,09,00,37,4.80
2017,06,09,00,38,3.20
2017,06,09,00,39,6.40
2017,06,09,00,40,4.80
2017,06,09,00,41,4.80
2017,06,09,00,42,3.20
2017,06,09,00,43,4.80
2017,06,09,00,44,6.40
2017,06,09,00,45,3.20
2017,06,09,00,46,4.80
2017,06,09,00,47,4.80
2017,06,09,00,48,3.20
2017,06,09,00,50,1.60
2017,06,09,00,51,1.60
2017,06,09,00,59,3.20
2017,06,09,01,00,3.20
2017,06,09,01,01,3.20
2017,06,09,01,02,3.20
2017,06,09,01,22,1.60
2017,06,09,01,23,4.80
2017,06,09,01,24,3.20
2017,06,09,01,25,3.20
2017,06,09,01,26,3.20
2017,06,09,01,27,3.20
2017,06,09,01,44,3.20
2017,06,09,01,45,3.20
2017,06,09,01,46,1.60
2017,06,09,01,47,1.60
2017,06,09,01,50,3.20
2017,06,09,01,51,3.20
2017,06,09,01,52,3.20
2017,06,09,01,53,4.80
2017,06,09,01,54,4.80
2017,06,09,01,55,3.20
2017,06,09,01,56,3.20
2017,06,09,01,59,4.80
2017,06,09,02,00,3.20
2017,06,09,02,01,3.20
2017,06,09,02,03,1.60
2017,06,09,02,04,3.20
2017,06,09,02,09,4.80
2017,06,09,02,10,4.80
2017,06,09,02,11,3.20
2017,06,09,02,12,3.20
2017,06,09,02,13,3.20
2017,06,09,02,14,1.60
2017,06,09,02,28,3.20
2017,06,09,02,29,1.60
2017,06,09,02,33,4.80
2017,06,09,02,34,4.80
2017,06,09,02,35,3.20
2017,06,09,02,36,3.20
2017,06,09,02,37,3.20
2017,06,09,02,38,4.80
2017,06,09,02,39,3.20
2017,06,09,02,40,4.80
2017,06,09,02,41,3.20
2017,06,09,02,42,3.20
2017,06,09,02,43,1.60
2017,06,09,02,45,3.20
2017,06,09,03,20,3.20
2017,06,09,03,21,1.60
2017,06,09,03,22,1.60
2017,06,09,03,49,3.20
2017,06,09,03,50,3.20
2017,06,09,03,51,1.60
2017,06,09,04,51,1.60
2017,06,09,04,52,3.20
2017,06,09,04,55,3.20
2017,06,09,04,56,4.80
2017,06,09,04,57,4.80
2017,06,09,04,58,3.20
2017,06,09,04,59,3.20
2017,06,09,05,00,3.20
2017,06,09,05,01,1.60
2017,06,09,05,44,3.20
2017,06,09,05,45,3.20
2017,06,09,05,46,3.20
2017,06,09,05,47,3.20
2017,06,09,05,48,1.60
2017,06,09,05,51,3.20
2017,06,09,05,52,4.80
2017,06,09,05,53,8.10
2017,06,09,05,54,8.10
2017,06,09,05,55,6.40
2017,06,09,05,56,4.80
2017,06,09,05,57,6.40
2017,06,09,05,58,8.10
2017,06,09,05,59,9.60
2017,06,09,06,00,6.40
2017,06,09,06,01,8.10
2017,06,09,06,02,4.80
2017,06,09,06,03,4.80
2017,06,09,06,04,4.80
2017,06,09,06,05,4.80
2017,06,09,06,06,6.40
2017,06,09,06,07,4.80
2017,06,09,06,08,4.80
2017,06,09,06,09,3.20
2017,06,09,06,10,3.20
2017,06,09,06,11,4.80
2017,06,09,06,12,4.80
2017,06,09,06,13,3.20
2017,06,09,06,14,3.20
2017,06,09,06,16,6.40
2017,06,09,06,17,6.40
2017,06,09,06,18,6.40
2017,06,09,06,19,4.80
2017,06,09,06,20,4.80
2017,06,09,06,21,6.40
2017,06,09,06,22,6.40
2017,06,09,06,23,6.40
2017,06,09,06,24,6.40
2017,06,09,06,25,4.80
2017,06,09,06,26,6.40
2017,06,09,06,27,8.10
2017,06,09,06,28,6.40
2017,06,09,06,29,6.40
2017,06,09,06,30,6.40
2017,06,09,06,31,6.40
2017,06,09,06,32,6.40
2017,06,09,06,33,4.80
2017,06,09,06,34,4.80
2017,06,09,06,35,4.80
2017,06,09,06,36,3.20
2017,06,09,06,37,6.40
2017,06,09,06,38,4.80
2017,06,09,06,39,3.20
2017,06,09,07,02,3.20
2017,06,09,07,03,4.80
2017,06,09,07,04,3.20
2017,06,09,07,07,3.20
2017,06,09,07,08,3.20
2017,06,09,07,09,1.60
2017,06,09,07,10,4.80
2017,06,09,07,11,6.40
2017,06,09,07,12,4.80
2017,06,09,07,13,6.40
2017,06,09,07,14,4.80
2017,06,09,07,15,4.80
2017,06,09,07,16,4.80
2017,06,09,07,17,4.80
2017,06,09,07,18,4.80
2017,06,09,07,19,6.40
2017,06,09,07,20,4.80
2017,06,09,07,21,4.80
2017,06,09,07,22,4.80
2017,06,09,07,23,4.80
2017,06,09,07,25,4.80
2017,06,09,07,26,4.80
2017,06,09,07,27,6.40
2017,06,09,07,28,4.80
2017,06,09,07,29,3.20
2017,06,09,07,30,6.40
2017,06,09,07,31,6.40
2017,06,09,07,32,4.80
2017,06,09,07,33,6.40
2017,06,09,07,34,8.10
2017,06,09,07,35,6.40
2017,06,09,07,36,6.40
2017,06,09,07,37,4.80
2017,06,09,07,38,6.40
2017,06,09,07,39,8.10
2017,06,09,07,40,9.60
2017,06,09,07,41,8.10
2017,06,09,07,42,6.40
2017,06,09,07,43,9.60
2017,06,09,07,44,11.30
2017,06,09,07,45,6.40
2017,06,09,07,46,6.40
2017,06,09,07,47,8.10
2017,06,09,07,48,4.80
2017,06,09,07,49,9.60
2017,06,09,07,50,14.50
2017,06,09,07,51,9.60
2017,06,09,07,52,12.90
2017,06,09,07,53,11.30
2017,06,09,07,54,6.40
2017,06,09,07,55,4.80
2017,06,09,07,56,8.10
2017,06,09,07,57,8.10
2017,06,09,07,58,8.10
2017,06,09,07,59,6.40
2017,06,09,08,00,11.30
2017,06,09,08,01,9.60
2017,06,09,08,02,6.40
2017,06,09,08,03,6.40
2017,06,09,08,05,6.40
2017,06,09,08,06,8.10
2017,06,09,08,07,6.40
2017,06,09,08,08,6.40
2017,06,09,08,09,9.60
2017,06,09,08,10,8.10
2017,06,09,08,11,8.10
2017,06,09,08,12,6.40
2017,06,09,08,13,8.10
2017,06,09,08,14,9.60
2017,06,09,08,15,9.60
2017,06,09,08,16,16.10
2017,06,09,08,17,16.10
2017,06,09,08,18,16.10
2017,06,09,08,19,14.50
2017,06,09,08,20,11.30
2017,06,09,08,21,9.60
2017,06,09,08,22,8.10
2017,06,09,08,23,11.30
2017,06,09,08,24,14.50
2017,06,09,08,25,14.50
2017,06,09,08,26,14.50
2017,06,09,08,27,11.30
2017,06,09,08,28,14.50
2017,06,09,08,29,11.30
2017,06,09,08,30,14.50
2017,06,09,08,31,12.90
2017,06,09,08,32,16.10
2017,06,09,08,33,16.10
2017,06,09,08,34,14.50
2017,06,09,08,35,9.60
2017,06,09,08,36,11.30
2017,06,09,08,37,11.30
2017,06,09,08,38,9.60
2017,06,09,08,39,16.10
2017,06,09,08,40,11.30
2017,06,09,08,41,17.70
2017,06,09,08,42,16.10
2017,06,09,08,43,16.10
2017,06,09,08,44,9.60
2017,06,09,08,45,16.10
2017,06,09,08,46,16.10
2017,06,09,08,47,16.10
2017,06,09,08,48,11.30
2017,06,09,08,49,8.10
2017,06,09,08,50,9.60
2017,06,09,08,51,14.50
2017,06,09,08,52,11.30
2017,06,09,08,53,11.30
2017,06,09,08,54,9.60
2017,06,09,08,55,11.30
2017,06,09,08,56,8.10
2017,06,09,08,57,9.60
2017,06,09,08,58,11.30
2017,06,09,08,59,9.60
2017,06,09,09,00,8.10
2017,06,09,09,01,14.50
2017,06,09,09,02,11.30
2017,06,09,09,03,17.70
2017,06,09,09,04,14.50
2017,06,09,09,05,19.30
2017,06,09,09,06,16.10
2017,06,09,09,07,14.50
2017,06,09,09,08,11.30
2017,06,09,09,09,12.90
2017,06,09,09,10,14.50
2017,06,09,09,11,17.70
2017,06,09,09,12,17.70
2017,06,09,09,13,12.90
2017,06,09,09,14,14.50
2017,06,09,09,15,11.30
2017,06,09,09,16,14.50
2017,06,09,09,17,16.10
2017,06,09,09,18,16.10
2017,06,09,09,19,11.30
2017,06,09,09,20,11.30
2017,06,09,09,21,14.50
2017,06,09,09,22,16.10
2017,06,09,09,23,14.50
2017,06,09,09,24,14.50
2017,06,09,09,25,9.60
2017,06,09,09,26,17.70
2017,06,09,09,27,19.30
2017,06,09,09,28,11.30
2017,06,09,09,29,12.90
2017,06,09,09,30,11.30
2017,06,09,09,31,11.30
2017,06,09,09,32,17.70
2017,06,09,09,33,16.10
2017,06,09,09,34,14.50
2017,06,09,09,35,8.10
2017,06,09,09,36,19.30
2017,06,09,09,37,16.10
2017,06,09,09,38,19.30
2017,06,09,09,39,14.50
2017,06,09,09,40,19.30
2017,06,09,09,41,17.70
2017,06,09,09,42,17.70
2017,06,09,09,43,19.30
2017,06,09,09,44,12.90
2017,06,09,09,45,19.30
2017,06,09,09,46,11.30
2017,06,09,09,47,17.70
2017,06,09,09,48,14.50
2017,06,09,09,49,9.60
2017,06,09,09,50,17.70
2017,06,09,09,51,22.50
2017,06,09,09,52,19.30
2017,06,09,09,53,19.30
2017,06,09,09,54,17.70
2017,06,09,09,55,16.10
2017,06,09,09,56,19.30
2017,06,09,09,57,20.90
2017,06,09,09,58,17.70
2017,06,09,09,59,24.20
2017,06,09,10,00,16.10
2017,06,09,10,01,19.30
2017,06,09,10,02,16.10
2017,06,09,10,03,11.30
2017,06,09,10,04,16.10
2017,06,09,10,05,17.70
2017,06,09,10,06,16.10
2017,06,09,10,07,17.70
2017,06,09,10,08,16.10
2017,06,09,10,09,11.30
2017,06,09,10,10,8.10
2017,06,09,10,11,19.30
2017,06,09,10,12,16.10
2017,06,09,10,13,19.30
2017,06,09,10,14,9.60
2017,06,09,10,15,9.60
2017,06,09,10,16,14.50
2017,06,09,10,17,19.30
2017,06,09,10,18,14.50
2017,06,09,10,19,14.50
2017,06,09,10,20,11.30
2017,06,09,10,21,8.10
2017,06,09,10,22,14.50
2017,06,09,10,23,17.70
2017,06,09,10,24,16.10
2017,06,09,10,25,8.10
2017,06,09,10,26,11.30
2017,06,09,10,27,8.10
2017,06,09,10,28,8.10
2017,06,09,10,29,8.10
2017,06,09,10,30,6.40
2017,06,09,10,31,11.30
2017,06,09,10,32,14.50
2017,06,09,10,33,11.30
2017,06,09,10,34,9.60
2017,06,09,10,35,11.30
2017,06,09,10,36,17.70
2017,06,09,10,37,17.70
2017,06,09,10,38,17.70
2017,06,09,10,39,16.10
2017,06,09,10,40,14.50
2017,06,09,10,41,11.30
2017,06,09,10,42,14.50
2017,06,09,10,43,9.60
2017,06,09,10,44,19.30
2017,06,09,10,45,9.60
2017,06,09,10,46,19.30
2017,06,09,10,47,12.90
2017,06,09,10,48,14.50
2017,06,09,10,49,8.10
2017,06,09,10,50,17.70
2017,06,09,10,51,19.30
2017,06,09,10,52,8.10
2017,06,09,10,53,11.30
2017,06,09,10,54,17.70
2017,06,09,10,55,9.60
2017,06,09,10,56,20.90
2017,06,09,10,57,19.30
2017,06,09,10,58,20.90
2017,06,09,10,59,17.70
2017,06,09,11,00,16.10
2017,06,09,11,01,19.30
2017,06,09,11,02,22.50
2017,06,09,11,03,19.30
2017,06,09,11,04,19.30
2017,06,09,11,05,14.50
2017,06,09,11,06,17.70
2017,06,09,11,07,14.50
2017,06,09,11,08,16.10
2017,06,09,11,09,19.30
2017,06,09,11,10,14.50
2017,06,09,11,11,16.10
2017,06,09,11,12,16.10
2017,06,09,11,13,14.50
2017,06,09,11,14,11.30
2017,06,09,11,15,17.70
2017,06,09,11,16,14.50
2017,06,09,11,17,9.60
2017,06,09,11,18,17.70
2017,06,09,11,19,19.30
2017,06,09,11,20,17.70
2017,06,09,11,21,16.10
2017,06,09,11,22,17.70
2017,06,09,11,23,17.70
2017,06,09,11,24,17.70
2017,06,09,11,25,11.30
2017,06,09,11,26,19.30
2017,06,09,11,27,17.70
2017,06,09,11,28,14.50
2017,06,09,11,29,11.30
2017,06,09,11,30,8.10
2017,06,09,11,31,11.30
2017,06,09,11,32,9.60
2017,06,09,11,33,9.60
2017,06,09,11,34,12.90
2017,06,09,11,35,19.30
2017,06,09,11,36,19.30
2017,06,09,11,37,11.30
2017,06,09,11,38,12.90
2017,06,09,11,39,19.30
2017,06,09,11,40,19.30
2017,06,09,11,41,20.90
2017,06,09,11,42,17.70
2017,06,09,11,43,20.90
2017,06,09,11,44,24.20
2017,06,09,11,45,24.20
2017,06,09,11,46,20.90
2017,06,09,11,47,14.50
2017,06,09,11,48,22.50
2017,06,09,11,49,19.30
2017,06,09,11,50,17.70
2017,06,09,11,51,20.90
2017,06,09,11,52,16.10
2017,06,09,11,53,19.30
2017,06,09,11,54,20.90
2017,06,09,11,55,20.90
2017,06,09,11,56,19.30
2017,06,09,11,57,12.90
2017,06,09,11,58,17.70
2017,06,09,11,59,22.50
2017,06,09,12,00,17.70
2017,06,09,12,01,17.70
2017,06,09,12,02,19.30
2017,06,09,12,03,9.60
2017,06,09,12,04,11.30
2017,06,09,12,05,20.90
2017,06,09,12,06,17.70
2017,06,09,12,07,20.90
2017,06,09,12,08,19.30
2017,06,09,12,09,24.20
2017,06,09,12,10,20.90
2017,06,09,12,11,17.70
2017,06,09,12,12,25.70
2017,06,09,12,13,19.30
2017,06,09,12,14,19.30
2017,06,09,12,15,22.50
2017,06,09,12,16,17.70
2017,06,09,12,17,17.70
2017,06,09,12,18,17.70
2017,06,09,12,19,16.10
2017,06,09,12,20,19.30
2017,06,09,12,21,19.30
2017,06,09,12,22,17.70
2017,06,09,12,23,14.50
2017,06,09,12,24,20.90
2017,06,09,12,25,16.10
2017,06,09,12,26,14.50
2017,06,09,12,27,11.30
2017,06,09,12,28,17.70
2017,06,09,12,29,20.90
2017,06,09,12,30,19.30
2017,06,09,12,31,17.70
2017,06,09,12,32,19.30
2017,06,09,12,33,11.30
2017,06,09,12,34,14.50
2017,06,09,12,35,11.30
2017,06,09,12,36,11.30
2017,06,09,12,37,11.30
2017,06,09,12,38,20.90
2017,06,09,12,39,17.70
2017,06,09,12,40,17.70
2017,06,09,12,41,11.30
2017,06,09,12,42,17.70
2017,06,09,12,43,19.30
2017,06,09,12,44,19.30
2017,06,09,12,45,16.10
2017,06,09,12,46,9.60
2017,06,09,12,47,9.60
2017,06,09,12,48,12.90
2017,06,09,12,49,19.30
2017,06,09,12,50,14.50
2017,06,09,12,51,19.30
2017,06,09,12,52,17.70
2017,06,09,12,53,14.50
2017,06,09,12,54,11.30
2017,06,09,12,55,16.10
2017,06,09,12,56,14.50
2017,06,09,12,57,16.10
2017,06,09,12,58,16.10
2017,06,09,12,59,22.50
2017,06,09,13,00,19.30
2017,06,09,13,01,22.50
2017,06,09,13,02,16.10
2017,06,09,13,03,16.10
2017,06,09,13,04,14.50
2017,06,09,13,05,11.30
2017,06,09,13,06,11.30
2017,06,09,13,07,11.30
2017,06,09,13,08,8.10
2017,06,09,13,09,17.70
2017,06,09,13,10,16.10
2017,06,09,13,11,9.60
2017,06,09,13,12,9.60
2017,06,09,13,13,12.90
2017,06,09,13,14,11.30
2017,06,09,13,15,16.10
2017,06,09,13,16,16.10
2017,06,09,13,17,11.30
2017,06,09,13,18,9.60
2017,06,09,13,19,14.50
2017,06,09,13,20,16.10
2017,06,09,13,21,14.50
2017,06,09,13,22,12.90
2017,06,09,13,23,11.30
2017,06,09,13,24,17.70
2017,06,09,13,25,12.90
2017,06,09,13,26,17.70
2017,06,09,13,27,11.30
2017,06,09,13,28,9.60
2017,06,09,13,29,8.10
2017,06,09,13,30,8.10
2017,06,09,13,31,16.10
2017,06,09,13,32,8.10
2017,06,09,13,33,16.10
2017,06,09,13,34,8.10
2017,06,09,13,35,17.70
2017,06,09,13,36,12.90
2017,06,09,13,37,11.30
2017,06,09,13,38,19.30
2017,06,09,13,39,17.70
2017,06,09,13,40,19.30
2017,06,09,13,41,16.10
2017,06,09,13,42,19.30
2017,06,09,13,43,19.30
2017,06,09,13,44,19.30
2017,06,09,13,45,24.20
2017,06,09,13,46,19.30
2017,06,09,13,47,12.90
2017,06,09,13,48,20.90
2017,06,09,13,49,17.70
2017,06,09,13,50,16.10
2017,06,09,13,51,14.50
2017,06,09,13,52,11.30
2017,06,09,13,53,16.10
2017,06,09,13,54,11.30
2017,06,09,13,55,11.30
2017,06,09,13,56,20.90
2017,06,09,13,57,17.70
2017,06,09,13,58,17.70
2017,06,09,13,59,17.70
2017,06,09,14,00,14.50
2017,06,09,14,01,16.10
2017,06,09,14,02,17.70
2017,06,09,14,03,11.30
2017,06,09,14,04,17.70
2017,06,09,14,05,19.30
2017,06,09,14,06,16.10
2017,06,09,14,07,14.50
2017,06,09,14,08,9.60
2017,06,09,14,09,14.50
2017,06,09,14,10,19.30
2017,06,09,14,11,19.30
2017,06,09,14,12,11.30
2017,06,09,14,13,14.50
2017,06,09,14,14,17.70
2017,06,09,14,15,19.30
2017,06,09,14,16,19.30
2017,06,09,14,17,16.10
2017,06,09,14,18,19.30
2017,06,09,14,19,17.70
2017,06,09,14,20,16.10
2017,06,09,14,21,11.30
2017,06,09,14,22,14.50
2017,06,09,14,23,16.10
2017,06,09,14,24,17.70
2017,06,09,14,25,20.90
2017,06,09,14,26,22.50
2017,06,09,14,27,19.30
2017,06,09,14,28,16.10
2017,06,09,14,29,14.50
2017,06,09,14,30,17.70
2017,06,09,14,31,14.50
2017,06,09,14,32,16.10
2017,06,09,14,33,11.30
2017,06,09,14,34,17.70
2017,06,09,14,35,19.30
2017,06,09,14,36,12.90
2017,06,09,14,37,14.50
2017,06,09,14,38,16.10
2017,06,09,14,39,14.50
2017,06,09,14,40,11.30
2017,06,09,14,41,17.70
2017,06,09,14,42,11.30
2017,06,09,14,43,14.50
2017,06,09,14,44,9.60
2017,06,09,14,45,16.10
2017,06,09,14,46,14.50
2017,06,09,14,47,16.10
2017,06,09,14,48,9.60
2017,06,09,14,49,16.10
2017,06,09,14,50,14.50
2017,06,09,14,51,14.50
2017,06,09,14,52,9.60
2017,06,09,14,53,11.30
2017,06,09,14,54,11.30
2017,06,09,14,55,8.10
2017,06,09,14,56,6.40
2017,06,09,14,57,9.60
2017,06,09,14,58,4.80
2017,06,09,14,59,11.30
2017,06,09,15,00,16.10
2017,06,09,15,01,8.10
2017,06,09,15,02,19.30
2017,06,09,15,03,14.50
2017,06,09,15,04,17.70
2017,06,09,15,05,17.70
2017,06,09,15,06,19.30
2017,06,09,15,07,17.70
2017,06,09,15,08,17.70
2017,06,09,15,09,17.70
2017,06,09,15,10,17.70
2017,06,09,15,11,11.30
2017,06,09,15,12,11.30
2017,06,09,15,13,14.50
2017,06,09,15,14,8.10
2017,06,09,15,15,9.60
2017,06,09,15,16,11.30
2017,06,09,15,17,16.10
2017,06,09,15,18,16.10
2017,06,09,15,19,12.90
2017,06,09,15,20,11.30
2017,06,09,15,21,9.60
2017,06,09,15,22,9.60
2017,06,09,15,23,14.50
2017,06,09,15,24,14.50
2017,06,09,15,25,14.50
2017,06,09,15,26,16.10
2017,06,09,15,27,16.10
2017,06,09,15,28,17.70
2017,06,09,15,29,19.30
2017,06,09,15,30,17.70
2017,06,09,15,31,17.70
2017,06,09,15,32,16.10
2017,06,09,15,33,16.10
2017,06,09,15,34,17.70
2017,06,09,15,35,17.70
2017,06,09,15,36,17.70
2017,06,09,15,37,17.70
2017,06,09,15,38,17.70
2017,06,09,15,39,14.50
2017,06,09,15,40,14.50
2017,06,09,15,41,16.10
2017,06,09,15,42,17.70
2017,06,09,15,43,16.10
2017,06,09,15,44,14.50
2017,06,09,15,45,16.10
2017,06,09,15,46,14.50
2017,06,09,15,47,16.10
2017,06,09,15,48,14.50
2017,06,09,15,49,14.50
2017,06,09,15,50,11.30
2017,06,09,15,51,14.50
2017,06,09,15,52,12.90
2017,06,09,15,53,11.30
2017,06,09,15,54,16.10
2017,06,09,15,55,11.30
2017,06,09,15,56,14.50
2017,06,09,15,57,16.10
2017,06,09,15,58,11.30
2017,06,09,15,59,11.30
2017,06,09,16,00,9.60
2017,06,09,16,01,16.10
2017,06,09,16,02,14.50
2017,06,09,16,03,14.50
2017,06,09,16,04,14.50
2017,06,09,16,05,17.70
2017,06,09,16,06,14.50
2017,06,09,16,07,12.90
2017,06,09,16,08,16.10
2017,06,09,16,09,16.10
2017,06,09,16,10,17.70
2017,06,09,16,11,14.50
2017,06,09,16,12,17.70
2017,06,09,16,13,17.70
2017,06,09,16,14,17.70
2017,06,09,16,15,16.10
2017,06,09,16,16,17.70
2017,06,09,16,17,17.70
2017,06,09,16,18,14.50
2017,06,09,16,19,16.10
2017,06,09,16,20,17.70
2017,06,09,16,21,17.70
2017,06,09,16,22,16.10
2017,06,09,16,23,17.70
2017,06,09,16,24,16.10
2017,06,09,16,25,19.30
2017,06,09,16,26,17.70
2017,06,09,16,27,19.30
2017,06,09,16,28,16.10
2017,06,09,16,29,16.10
2017,06,09,16,30,16.10
2017,06,09,16,31,17.70
2017,06,09,16,32,16.10
2017,06,09,16,33,16.10
2017,06,09,16,34,14.50
2017,06,09,16,35,11.30
2017,06,09,16,36,16.10
2017,06,09,16,37,11.30
2017,06,09,16,38,14.50
2017,06,09,16,39,14.50
2017,06,09,16,40,11.30
2017,06,09,16,41,11.30
2017,06,09,16,42,9.60
2017,06,09,16,43,6.40
2017,06,09,16,44,9.60
2017,06,09,16,45,9.60
2017,06,09,16,46,9.60
2017,06,09,16,47,9.60
2017,06,09,16,48,6.40
2017,06,09,16,49,9.60
2017,06,09,16,50,8.10
2017,06,09,16,51,6.40
2017,06,09,16,52,9.60
2017,06,09,16,53,11.30
2017,06,09,16,54,11.30
2017,06,09,16,55,11.30
2017,06,09,16,56,14.50
2017,06,09,16,57,16.10
2017,06,09,16,58,14.50
2017,06,09,16,59,11.30
2017,06,09,17,00,11.30
2017,06,09,17,01,11.30
2017,06,09,17,02,9.60
2017,06,09,17,03,14.50
2017,06,09,17,04,11.30
2017,06,09,17,05,14.50
2017,06,09,17,06,11.30
2017,06,09,17,07,12.90
2017,06,09,17,08,11.30
2017,06,09,17,09,14.50
2017,06,09,17,10,12.90
2017,06,09,17,11,11.30
2017,06,09,17,12,11.30
2017,06,09,17,13,9.60
2017,06,09,17,14,9.60
2017,06,09,17,15,8.10
2017,06,09,17,16,9.60
2017,06,09,17,17,9.60
2017,06,09,17,18,12.90
2017,06,09,17,19,9.60
2017,06,09,17,20,9.60
2017,06,09,17,21,6.40
2017,06,09,17,22,9.60
2017,06,09,17,23,9.60
2017,06,09,17,24,11.30
2017,06,09,17,25,9.60
2017,06,09,17,26,11.30
2017,06,09,17,27,9.60
2017,06,09,17,28,9.60
2017,06,09,17,29,11.30
2017,06,09,17,30,11.30
2017,06,09,17,31,11.30
2017,06,09,17,32,11.30
2017,06,09,17,33,14.50
2017,06,09,17,34,11.30
2017,06,09,17,35,16.10
2017,06,09,17,36,17.70
2017,06,09,17,37,9.60
2017,06,09,17,38,8.10
2017,06,09,17,39,11.30
2017,06,09,17,40,14.50
2017,06,09,17,41,11.30
2017,06,09,17,42,19.30
2017,06,09,17,43,12.90
2017,06,09,17,44,16.10
2017,06,09,17,45,17.70
2017,06,09,17,46,19.30
2017,06,09,17,47,17.70
2017,06,09,17,48,16.10
2017,06,09,17,49,14.50
2017,06,09,17,50,17.70
2017,06,09,17,51,14.50
2017,06,09,17,52,14.50
2017,06,09,17,53,17.70
2017,06,09,17,54,14.50
2017,06,09,17,55,16.10
2017,06,09,17,56,14.50
2017,06,09,17,57,14.50
2017,06,09,17,58,11.30
2017,06,09,17,59,11.30
2017,06,09,18,00,12.90
2017,06,09,18,01,14.50
2017,06,09,18,02,14.50
2017,06,09,18,03,11.30
2017,06,09,18,04,9.60
2017,06,09,18,05,9.60
2017,06,09,18,06,14.50
2017,06,09,18,07,11.30
2017,06,09,18,08,14.50
2017,06,09,18,09,14.50
2017,06,09,18,10,8.10
2017,06,09,18,11,17.70
2017,06,09,18,12,8.10
2017,06,09,18,13,16.10
2017,06,09,18,14,16.10
2017,06,09,18,15,14.50
2017,06,09,18,16,16.10
2017,06,09,18,17,14.50
2017,06,09,18,18,11.30
2017,06,09,18,19,14.50
2017,06,09,18,20,9.60
2017,06,09,18,21,9.60
2017,06,09,18,22,9.60
2017,06,09,18,23,6.40
2017,06,09,18,24,9.60
2017,06,09,18,25,14.50
2017,06,09,18,26,14.50
2017,06,09,18,27,8.10
2017,06,09,18,28,11.30
2017,06,09,18,29,12.90
2017,06,09,18,30,12.90
2017,06,09,18,31,12.90
2017,06,09,18,32,11.30
2017,06,09,18,33,16.10
2017,06,09,18,34,4.80
2017,06,09,18,35,8.10
2017,06,09,18,36,9.60
2017,06,09,18,37,4.80
2017,06,09,18,38,6.40
2017,06,09,18,39,9.60
2017,06,09,18,40,6.40
2017,06,09,18,41,4.80
2017,06,09,18,42,14.50
2017,06,09,18,43,6.40
2017,06,09,18,44,6.40
2017,06,09,18,45,9.60
2017,06,09,18,46,9.60
2017,06,09,18,47,8.10
2017,06,09,18,48,8.10
2017,06,09,18,49,6.40
2017,06,09,18,50,6.40
2017,06,09,18,51,11.30
2017,06,09,18,52,6.40
2017,06,09,18,53,6.40
2017,06,09,18,54,9.60
2017,06,09,18,55,6.40
2017,06,09,18,56,4.80
2017,06,09,18,57,4.80
2017,06,09,18,58,4.80
2017,06,09,18,59,4.80
2017,06,09,19,00,6.40
2017,06,09,19,01,4.80
2017,06,09,19,02,9.60
2017,06,09,19,03,8.10
2017,06,09,19,04,9.60
2017,06,09,19,05,8.10
2017,06,09,19,06,8.10
2017,06,09,19,07,8.10
2017,06,09,19,08,4.80
2017,06,09,19,09,6.40
2017,06,09,19,10,6.40
2017,06,09,19,11,6.40
2017,06,09,19,12,3.20
2017,06,09,19,13,8.10
2017,06,09,19,14,8.10
2017,06,09,19,15,6.40
2017,06,09,19,16,3.20
2017,06,09,19,17,4.80
2017,06,09,19,18,6.40
2017,06,09,19,19,6.40
2017,06,09,19,20,11.30
2017,06,09,19,21,11.30
2017,06,09,19,22,9.60
2017,06,09,19,23,8.10
2017,06,09,19,24,9.60
2017,06,09,19,25,8.10
2017,06,09,19,26,11.30
2017,06,09,19,27,6.40
2017,06,09,19,28,8.10
2017,06,09,19,29,8.10
2017,06,09,19,30,8.10
2017,06,09,19,31,4.80
2017,06,09,19,32,8.10
2017,06,09,19,33,4.80
2017,06,09,19,34,9.60
2017,06,09,19,35,11.30
2017,06,09,19,36,8.10
2017,06,09,19,37,9.60
2017,06,09,19,38,11.30
2017,06,09,19,39,9.60
2017,06,09,19,40,11.30
2017,06,09,19,41,9.60
2017,06,09,19,42,16.10
2017,06,09,19,43,9.60
2017,06,09,19,44,12.90
2017,06,09,19,45,11.30
2017,06,09,19,46,14.50
2017,06,09,19,47,9.60
2017,06,09,19,48,11.30
2017,06,09,19,49,11.30
2017,06,09,19,50,9.60
2017,06,09,19,51,8.10
2017,06,09,19,52,9.60
2017,06,09,19,53,9.60
2017,06,09,19,54,8.10
2017,06,09,19,55,9.60
2017,06,09,19,56,9.60
2017,06,09,19,57,9.60
2017,06,09,19,58,9.60
2017,06,09,19,59,8.10
2017,06,09,20,00,11.30
2017,06,09,20,01,9.60
2017,06,09,20,02,11.30
2017,06,09,20,03,9.60
2017,06,09,20,04,8.10
2017,06,09,20,05,8.10
2017,06,09,20,06,6.40
2017,06,09,20,07,8.10
2017,06,09,20,08,8.10
2017,06,09,20,09,6.40
2017,06,09,20,10,6.40
2017,06,09,20,11,9.60
2017,06,09,20,12,9.60
2017,06,09,20,13,8.10
2017,06,09,20,14,9.60
2017,06,09,20,15,11.30
2017,06,09,20,16,8.10
2017,06,09,20,17,12.90
2017,06,09,20,18,16.10
2017,06,09,20,19,12.90
2017,06,09,20,20,9.60
2017,06,09,20,21,9.60
2017,06,09,20,22,11.30
2017,06,09,20,23,12.90
2017,06,09,20,24,11.30
2017,06,09,20,25,9.60
2017,06,09,20,26,11.30
2017,06,09,20,27,16.10
2017,06,09,20,28,9.60
2017,06,09,20,29,9.60
2017,06,09,20,30,9.60
2017,06,09,20,31,8.10
2017,06,09,20,32,8.10
2017,06,09,20,33,9.60
2017,06,09,20,34,9.60
2017,06,09,20,35,8.10
2017,06,09,20,36,6.40
2017,06,09,20,37,8.10
2017,06,09,20,38,11.30
2017,06,09,20,39,4.80
2017,06,09,20,40,6.40
2017,06,09,20,41,4.80
2017,06,09,20,42,9.60
2017,06,09,20,43,9.60
2017,06,09,20,44,11.30
2017,06,09,20,45,14.50
2017,06,09,20,46,14.50
2017,06,09,20,47,9.60
2017,06,09,20,48,9.60
2017,06,09,20,49,8.10
2017,06,09,20,50,6.40
2017,06,09,20,51,9.60
2017,06,09,20,52,6.40
2017,06,09,20,53,6.40
2017,06,09,20,54,4.80
2017,06,09,20,55,3.20
2017,06,09,20,56,9.60
2017,06,09,20,57,9.60
2017,06,09,20,58,9.60
2017,06,09,20,59,6.40
2017,06,09,21,00,9.60
2017,06,09,21,01,8.10
2017,06,09,21,02,8.10
2017,06,09,21,03,8.10
2017,06,09,21,04,11.30
2017,06,09,21,05,4.80
2017,06,09,21,06,8.10
2017,06,09,21,07,6.40
2017,06,09,21,08,6.40
2017,06,09,21,09,8.10
2017,06,09,21,10,12.90
2017,06,09,21,11,11.30
2017,06,09,21,12,8.10
2017,06,09,21,13,9.60
2017,06,09,21,14,6.40
2017,06,09,21,15,4.80
2017,06,09,21,16,11.30
2017,06,09,21,17,6.40
2017,06,09,21,18,4.80
2017,06,09,21,19,8.10
2017,06,09,21,20,3.20
2017,06,09,21,21,4.80
2017,06,09,21,22,9.60
2017,06,09,21,23,6.40
2017,06,09,21,24,4.80
2017,06,09,21,25,8.10
2017,06,09,21,26,6.40
2017,06,09,21,27,6.40
2017,06,09,21,28,8.10
2017,06,09,21,29,6.40
2017,06,09,21,30,8.10
2017,06,09,21,31,8.10
2017,06,09,21,32,9.60
2017,06,09,21,33,8.10
2017,06,09,21,34,6.40
2017,06,09,21,35,9.60
2017,06,09,21,36,8.10
2017,06,09,21,37,8.10
2017,06,09,21,38,11.30
2017,06,09,21,39,8.10
2017,06,09,21,40,8.10
2017,06,09,21,41,8.10
2017,06,09,21,42,11.30
2017,06,09,21,43,11.30
2017,06,09,21,44,11.30
2017,06,09,21,45,9.60
2017,06,09,21,46,8.10
2017,06,09,21,47,11.30
2017,06,09,21,48,11.30
2017,06,09,21,49,11.30
2017,06,09,21,50,11.30
2017,06,09,21,51,9.60
2017,06,09,21,52,9.60
2017,06,09,21,53,8.10
2017,06,09,21,54,8.10
2017,06,09,21,55,8.10
2017,06,09,21,56,8.10
2017,06,09,21,57,8.10
2017,06,09,21,58,9.60
2017,06,09,21,59,4.80
2017,06,09,22,00,6.40
2017,06,09,22,01,4.80
2017,06,09,22,02,3.20
2017,06,09,22,03,6.40
2017,06,09,22,04,3.20
2017,06,09,22,08,3.20
2017,06,09,22,09,3.20
2017,06,09,22,11,4.80
2017,06,09,22,12,3.20
2017,06,09,22,24,3.20
2017,06,09,22,25,1.60
2017,06,09,22,37,1.60
2017,06,09,22,38,3.20
2017,06,09,22,39,1.60
2017,06,09,22,41,3.20
2017,06,09,22,42,3.20
2017,06,09,22,43,1.60
2017,06,09,22,50,6.40
2017,06,09,22,51,6.40
2017,06,09,22,52,4.80
2017,06,09,22,53,4.80